This is the latest recevied weather packets stored in our database for station/object K1BES. If no packets are shown the sender has not sent any weather packets the latest 10 day(s).
| Time | Temp. | Humidity | Pressure | Rain* | Wind** | Luminosity | Snow |
|---|---|---|---|---|---|---|---|
| 1787428957 | 33.33° C | 65% | 1018 hPa | 0 mm | - | 700 W/m² | - |
| 1787428652 | 33.33° C | 65% | 1018 hPa | 0 mm | - | 581 W/m² | - |
| 1787428348 | 33.33° C | 64% | 1018.3 hPa | 0 mm | - | 639 W/m² | - |
| 1787428048 | 33.33° C | 64% | 1018.4 hPa | 0 mm | - | 715 W/m² | - |
| 1787427743 | 33.89° C | 62% | 1018.2 hPa | 0 mm | - | 697 W/m² | - |
| 1787427438 | 33.89° C | 62% | 1018.2 hPa | 0 mm | - | 667 W/m² | - |
| 1787427135 | 33.89° C | 61% | 1018.3 hPa | 0 mm | - | 697 W/m² | - |
| 1787426830 | 33.89° C | 61% | 1018.4 hPa | 0 mm | - | 682 W/m² | - |
| 1787426525 | 33.89° C | 62% | 1018.5 hPa | 0 mm | - | 719 W/m² | - |
| 1787426223 | 33.89° C | 62% | 1018.4 hPa | 0 mm | - | 664 W/m² | - |
| 1787425918 | 33.89° C | 63% | 1018.7 hPa | 0 mm | - | 604 W/m² | - |
| 1787425615 | 33.89° C | 62% | 1018.7 hPa | 0 mm | - | 685 W/m² | - |
| 1787425310 | 33.89° C | 63% | 1018.8 hPa | 0 mm | - | 728 W/m² | - |
| 1787425009 | 34.44° C | 62% | 1019 hPa | 0 mm | - | 695 W/m² | - |
| 1787424709 | 33.89° C | 64% | 1018.9 hPa | 0 mm | - | 990 W/m² | - |
| 1787424405 | 33.89° C | 64% | 1019 hPa | 0 mm | - | 1039 W/m² | - |
| 1787424104 | 34.44° C | 62% | 1018.8 hPa | 0 mm | - | 1060 W/m² | - |
| 1787423801 | 34.44° C | 64% | 1019.2 hPa | 0 mm | - | 1030 W/m² | - |
| 1787423497 | 34.44° C | 64% | 1019.2 hPa | 0 mm | - | 421 W/m² | - |
| 1787423193 | 34.44° C | 63% | 1019 hPa | 0 mm | - | 1045 W/m² | - |
| 1787422889 | 34.44° C | 62% | 1019 hPa | 0 mm | - | 1055 W/m² | - |
| 1787422585 | 34.44° C | 63% | 1019.3 hPa | 0 mm | - | 1074 W/m² | - |
| 1787422280 | 34.44° C | 64% | 1019.1 hPa | 0 mm | - | 1036 W/m² | - |
| 1787421976 | 34.44° C | 63% | 1019 hPa | 0 mm | - | 1032 W/m² | - |
| 1787421673 | 33.89° C | 64% | 1019.4 hPa | 0 mm | - | 1028 W/m² | - |
* Rain latest hour (hover to see other rain measurements)
** Current wind speed in m/s (hover to see current wind gust speed)